Location: Morlupo
(42.1333°N, 12.5000°E)
Time: 16:42:36
(UTC+00:00)

YAOGAN 1 - Pass Details

Date: 18 September 2020
Orbit: 618 x 620 km, 97.9° (Epoch: 26 October)

Event Time Altitude Azimuth Distance (km) Brightness Sun altitude
Rises 18:20:14 0° 184° (S) 2,882 5.9 -13.0°
Reaches altitude 10° 18:22:31 10° 192° (SSW) 1,981 5.1 -13.4°
Maximum altitude 18:26:33 39° 262° (W) 928 4.0 -14.1°
Drops below altitude 10° 18:30:39 10° 332° (NNW) 1,996 5.8 -14.9°
Sets 18:32:58 0° 340° (NNW) 2,907 6.6 -15.3°
